SCP
0 0 0 0 0 0 0 0 0 0 0 0 0 0 0 0 0 0 0 0 0 0
0 0 0 0 0 0 0 0 0 0 0 0 0 0 0 0 0 0 0 0 0 0
0 0 0 0 0 0 0 0 0 0 0 0 0 0 0 0 0 0 0 0 0 0
0 0 0 0 0 0 0 0 0 0 0 0 0 0 0 0 0 0 0 0 0 0
0 0 0 0 0 0 0 0 0 0 0 0 0 0 0 0 0 0 0 0 0 0
0 0 0 0 0 0 0 0 0 0 0 0 0 0 0 0 0 0 0 0 0 0
0 0 0 0 0 0 0 0 0 0 0 0 0 0 0 0 0 0 0 0 0 0
0 0 0 0 0 0 0 0 0 0 0 0 0 0 0 0 0 0 0 0 0 0
0 0 0 0 0 0 0 0 0 0 0 0 0 0 0 0 0 0 0 0 0 0
0 0 0 0 0 0 0 0 0 0 0 0 0 0 0 0 0 0 0 0 0 0
0 0 0 0 0 0 0 0 0 0 0 0 0 0 0 0 0 0 0 0 0 0
0 0 0 0 0 0 0 0 0 0 0 0 0 0 0 0 0 0 0 0 0 0
0 0 0 0 0 0 0 0 0 0 0 0 0 0 0 0 0 0 0 0 0 0
0 0 0 0 0 0 0 0 0 0 0 0 0 0 0 0 0 0 0 0 0 0
Wind_Speed_500mb
58 81 70 69 72 66 67 66 53 76 71 61 47 40 38 41 41 42 38 34 36 30
62 74 88 67 59 60 57 60 58 60 60 49 39 33 33 31 25 25 25 26 30 25
15 41 56 61 69 64 54 38 42 37 39 39 24 23 29 24 23 24 27 29 22 14
14 20 27 35 36 21 27 28 28 34 29 22 20 20 23 28 31 25 19 14 11 12
45 41 40 40 35 32 29 26 29 19 14 11 7 11 15 17 18 12 4 4 7 7
37 33 28 29 27 21 23 17 14 9 11 13 13 7 6 4 6 10 11 7 5 7
23 21 16 14 11 13 10 8 5 7 7 3 2 6 10 11 14 5 7 9 11 7
9 9 7 12 10 6 2 1 4 7 9 11 14 16 12 11 8 11 14 15 9 8
15 17 19 16 8 7 9 10 13 13 12 11 11 12 13 14 15 16 14 12 11 8
21 21 21 17 15 15 14 15 16 18 19 19 19 18 16 16 13 12 12 11 9 7
23 21 21 19 18 15 14 14 16 16 16 14 15 15 14 14 12 11 10 9 7 5
23 20 19 16 15 15 13 12 13 15 15 16 15 15 14 14 11 9 7 6 6 3
21 18 17 16 13 14 14 13 13 12 13 14 13 13 11 10 7 5 3 2 1 2
17 15 13 12 11 10 9 8 7 8 8 9 10 9 7 6 6 5 5 5 5 7
Wind_Direction_500mb
224 223 223 231 226 229 231 237 246 235 236 235 208 213 223 228 237 248 256 253 242 253
236 229 228 228 228 230 222 234 240 241 237 205 204 206 215 220 230 251 252 247 247 237
196 189 212 227 227 231 202 222 209 209 181 174 194 207 215 227 246 252 256 235 210 223
127 163 165 176 163 203 181 175 199 196 194 209 216 211 236 249 254 228 202 182 219 232
105 108 101 99 106 102 102 89 91 90 100 116 85 212 208 186 168 149 137 276 223 223
101 95 90 86 82 86 86 81 75 84 91 86 84 84 89 143 160 162 170 201 214 208
85 84 85 83 69 40 13 340 273 252 262 259 248 238 185 167 159 178 189 187 168 161
46 42 57 88 90 100 50 319 204 197 192 173 164 159 163 170 166 173 168 159 164 153
67 76 73 67 69 111 143 146 141 148 157 144 139 136 150 144 146 150 154 149 134 123
85 87 90 96 104 107 117 119 117 111 110 122 123 121 124 126 130 128 126 123 122 118
81 81 84 87 92 106 111 113 110 114 119 122 119 120 121 121 128 136 139 136 129 114
80 80 82 85 95 102 100 100 103 111 117 118 125 129 132 127 136 141 140 137 128 97
82 81 82 85 94 101 103 102 108 110 113 121 133 135 137 137 140 147 156 146 132 345
81 82 86 85 78 82 81 90 100 106 123 139 148 160 163 177 195 210 226 265 279 290
Wind_Speed_850mb
58 81 70 69 72 66 67 66 53 76 71 61 47 40 38 41 41 42 38 34 36 30
62 74 88 67 59 60 57 60 58 60 60 49 39 33 33 31 25 25 25 26 30 25
15 41 56 61 69 64 54 38 42 37 39 39 24 23 29 24 23 24 27 29 22 14
14 20 27 35 36 21 27 28 28 34 29 22 20 20 23 28 31 25 19 14 11 12
45 41 40 40 35 32 29 26 29 19 14 11 7 11 15 17 18 12 4 4 7 7
37 33 28 29 27 21 23 17 14 9 11 13 13 7 6 4 6 10 11 7 5 7
23 21 16 14 11 13 10 8 5 7 7 3 2 6 10 11 14 5 7 9 11 7
9 9 7 12 10 6 2 1 4 7 9 11 14 16 12 11 8 11 14 15 9 8
15 17 19 16 8 7 9 10 13 13 12 11 11 12 13 14 15 16 14 12 11 8
21 21 21 17 15 15 14 15 16 18 19 19 19 18 16 16 13 12 12 11 9 7
23 21 21 19 18 15 14 14 16 16 16 14 15 15 14 14 12 11 10 9 7 5
23 20 19 16 15 15 13 12 13 15 15 16 15 15 14 14 11 9 7 6 6 3
21 18 17 16 13 14 14 13 13 12 13 14 13 13 11 10 7 5 3 2 1 2
17 15 13 12 11 10 9 8 7 8 8 9 10 9 7 6 6 5 5 5 5 7
Wind_Direction_850mb
224 223 223 231 226 229 231 237 246 235 236 235 208 213 223 228 237 248 256 253 242 253
236 229 228 228 228 230 222 234 240 241 237 205 204 206 215 220 230 251 252 247 247 237
196 189 212 227 227 231 202 222 209 209 181 174 194 207 215 227 246 252 256 235 210 223
127 163 165 176 163 203 181 175 199 196 194 209 216 211 236 249 254 228 202 182 219 232
105 108 101 99 106 102 102 89 91 90 100 116 85 212 208 186 168 149 137 276 223 223
101 95 90 86 82 86 86 81 75 84 91 86 84 84 89 143 160 162 170 201 214 208
85 84 85 83 69 40 13 340 273 252 262 259 248 238 185 167 159 178 189 187 168 161
46 42 57 88 90 100 50 319 204 197 192 173 164 159 163 170 166 173 168 159 164 153
67 76 73 67 69 111 143 146 141 148 157 144 139 136 150 144 146 150 154 149 134 123
85 87 90 96 104 107 117 119 117 111 110 122 123 121 124 126 130 128 126 123 122 118
81 81 84 87 92 106 111 113 110 114 119 122 119 120 121 121 128 136 139 136 129 114
80 80 82 85 95 102 100 100 103 111 117 118 125 129 132 127 136 141 140 137 128 97
82 81 82 85 94 101 103 102 108 110 113 121 133 135 137 137 140 147 156 146 132 345
81 82 86 85 78 82 81 90 100 106 123 139 148 160 163 177 195 210 226 265 279 290